Location: ?ern� Novina
(50.6762°N, 14.8696°E)
Time: 01:47:18
(UTC+00:00)

Resurs 01 Rocket - Pass Details

Date: 03 March 2021
Orbit: 635 x 643 km, 98.0° (Epoch: 13 April)

Event Time Altitude Azimuth Distance (km) Brightness Sun altitude
Exits shadow 19:12:41 54° 31° (NNE) 777 1.9 -23.8°
Drops below altitude 10° 19:16:24 10° 352° (N) 2,037 4.5 -24.3°
Sets 19:18:38 0° 349° (N) 2,951 5.5 -24.7°
